Location: ??
(35.3857°N, 139.4841°E)
Time: 11:40:59
(UTC+00:00)

Daily predictions for brighter satellites

Satellite Brightness Start Highest point End
(mag) Time Altitude Azimuth Time Altitude Azimuth Time Altitude Azimuth
ATLAS 3B R/B 4.4 17:56:08 27° NE 17:56:08 27° NE 17:59:20 10° NE
Cosmos 2360 Rocket 3.9 18:29:29 26° NE 18:29:29 26° NE 18:32:11 10° NE
Cosmos 2219 Rocket 4.5 18:27:27 10° SSE 18:31:33 21° E 18:35:39 10° NE
Cosmos 2344 4.4 18:41:18 60° SW 18:41:18 60° SW 18:54:02 10° SSE
Cosmos 2322 Rocket 4.1 18:49:47 20° NNE 18:49:47 20° NNE 18:51:23 10° NNE
Lacrosse 5 rocket 4.2 18:46:19 13° SE 18:47:27 14° ESE 18:49:44 10° E
Cosmos 2333 Rocket 2.4 19:02:22 67° SE 19:02:47 70° ESE 19:08:31 10° NNE
NOSS 3-1 (A) 4.0 19:10:20 36° NNE 19:10:20 36° NNE 19:13:46 10° NNE
SL-16 R/B 4.5 19:15:25 11° N 19:15:25 11° N 19:15:37 10° N
Cosmos 1844 Rocket 2.9 19:15:54 46° N 19:17:28 68° ENE 19:23:04 10° SSE
IRS-P3 Rocket 4.4 19:12:36 10° NNE 19:17:50 90° ESE 19:23:04 10° SSW
Cosmos 1072 Rocket 4.5 19:14:29 10° S 19:20:45 84° E 19:27:09 10° N
H-2A R/B 2.3 19:16:01 10° NNE 19:20:54 63° E 19:25:50 10° S
COSMO-SKYMED 1 4.3 19:22:23 10° SE 19:26:11 30° ENE 19:29:59 10° N
COSMOS 2455 3.6 19:23:09 23° N 19:26:42 50° ENE 19:32:31 10° SE
Okean 1-7 Rocket 3.6 19:25:47 10° S 19:30:09 74° E 19:34:32 10° N
Cosmos 1464 Rocket 3.8 19:24:32 10° S 19:30:41 88° W 19:36:55 10° N
Milstar 3 Cent rocket 3.0 19:32:02 33° SW 19:33:19 38° S 19:40:03 10° ESE
CZ-3 Stage 3 2.4 19:34:09 32° S 19:34:09 32° S 19:35:54 10° SE
Helios 1A 3.1 19:30:55 10° SSE 19:34:59 70° ENE 19:36:02 47° N
Cosmos 2333 4.1 19:32:41 24° SSW 19:36:13 71° WNW 19:41:59 10° NNE
IRS-1C 4.0 19:32:07 10° N 19:37:27 76° WNW 19:42:44 10° SSW
Cosmos 2322 4.4 19:33:10 10° S 19:38:41 54° ESE 19:44:12 10° NNE
ARGOS 4.4 19:34:43 10° NNE 19:39:48 42° E 19:44:50 10° S
Cosmos 2056 Rocket 4.1 19:37:30 15° N 19:41:55 57° ENE 19:47:06 10° SSE
ATLAS 3B R/B 3.5 19:43:26 32° NW 19:43:26 32° NW 19:49:52 10° NNE
BREEZE-M DEB (TANK) 3.0 19:48:12 33° NNE 19:48:22 33° NNE 19:52:13 10° E
BlueWalker 3 4.0 19:48:13 16° N 19:49:28 18° NNE 19:52:10 10° ENE
ERS-1 4.3 19:45:03 10° N 19:49:58 69° WNW 19:54:53 10° SSW
ASTRO E2 4.0 19:50:57 24° SSW 19:51:01 24° SSW 19:54:01 10° SE
Gbstr 26 Del rocket 3.3 19:51:36 48° W 19:52:34 59° SW 19:57:52 10° SSE
Cosmos 1812 Rocket 4.0 19:48:14 10° N 19:52:38 64° E 19:57:03 10° SSE
USA 281 3.2 19:47:18 10° NNE 19:53:44 59° WNW 20:00:08 10° SW
Timation 2 Rocket 4.2 19:54:44 27° NW 19:58:13 55° WSW 20:04:43 10° S
Cosmos 1680 Rocket 4.5 19:59:32 28° NW 19:59:32 28° NW 20:02:54 10° N
Cosmos 1758 Rocket 3.5 19:54:11 10° SSW 19:58:27 58° W 20:02:42 10° N
Cosmos 192 4.2 19:56:37 27° NNW 19:59:16 68° WSW 20:04:09 10° S
Cosmos 2034 Rocket 3.9 19:53:38 10° S 19:59:59 77° W 20:06:19 10° N
USA 215 3.2 19:53:31 10° NE 20:00:00 70° NW 20:06:28 10° SW
ARIANE 5 R/B 2.7 19:55:35 10° N 20:00:35 48° WNW 20:05:35 10° SW
Cosmos 1371 Rocket 4.0 20:01:05 14° NNW 20:05:47 82° WSW 20:11:08 10° SSE
SL-19 R/B 4.3 20:02:10 10° N 20:07:23 48° WNW 20:12:23 10° SW
IRS-P3 4.3 20:03:58 10° N 20:09:02 47° WNW 20:14:06 10° SW
Cosmos 2360 Rocket 3.2 20:11:21 24° NW 20:11:21 24° NW 20:15:29 10° N
CZ-3 R/B 3.0 19:53:53 14° WSW 20:11:00 58° S 20:17:01 10° ESE
SKYMED 2 3.5 20:09:47 10° S 20:14:06 71° WSW 20:18:26 10° NNW
BREEZE-M DEB (TANK) 4.0 20:11:17 23° NW 20:14:56 89° SW 20:33:31 10° SE
Cosmos 2219 Rocket 2.4 20:09:42 10° SW 20:15:04 45° WNW 20:20:30 10° N
JB-3 4.5 20:12:06 10° SSE 20:16:09 78° ENE 20:20:13 10° N
VEP-3 4.3 20:11:07 10° SW 20:16:58 28° S 20:22:09 10° ESE
Geosat 4.4 20:12:56 10° N 20:17:33 38° WNW 20:22:10 10° SW
Cosmos 1844 4.1 20:16:33 20° NW 20:19:47 38° WSW 20:24:53 10° S
Spot 4 Rocket 3.9 20:16:43 10° N 20:21:53 79° WNW 20:27:00 10° SSW
Cosmos 1048 Rocket 3.9 20:18:15 10° SSW 20:23:25 81° WNW 20:28:35 10° NNE
Cosmos 1420 Rocket 4.3 20:20:40 12° NNW 20:25:18 48° WSW 20:30:21 10° S
Cosmos 1602 Rocket 4.3 20:21:32 10° SW 20:25:23 29° WNW 20:29:14 10° NNW
Lacrosse 5 rocket 1.4 20:21:33 10° SW 20:25:35 55° NW 20:29:51 10° NNE
Cosmos 1933 3.2 20:24:03 10° N 20:28:00 88° ENE 20:31:57 10° S
FengYun 1-2 T 4.3 20:24:33 10° N 20:29:59 53° WNW 20:35:20 10° SSW
Cosmos 2322 Rocket 4.0 20:31:40 11° NW 20:31:40 11° NW 20:32:40 10° NNW
Cosmos 1624 Rocket 4.2 20:25:36 10° NNW 20:30:30 48° WSW 20:35:29 10° S
Chandra Rocket (1) 4.2 20:30:45 10° SW 20:33:54 21° S 20:40:18 10° SE
Cosmos 2026 Rocket 4.0 20:28:24 10° N 20:34:48 88° W 20:41:07 10° S
CZ-2D R/B 3.0 20:32:48 10° N 20:36:28 83° WNW 20:40:06 10° SSW
SMAP 4.4 20:32:09 10° NNE 20:36:36 44° E 20:41:02 10° S
Cosmos-2242 4.1 20:37:33 11° NW 20:40:40 24° W 20:44:02 10° SW
Cosmos 2195 Rocket 4.4 20:34:42 10° NNW 20:40:48 65° W 20:46:49 10° S
Cosmos 1953 Rocket 3.5 20:37:08 10° S 20:41:33 79° W 20:46:02 10° N
Cosmos 1862 3.2 20:40:52 10° SSW 20:44:39 61° W 20:48:28 10° N
SL-08 R/B 3.7 20:41:57 10° S 20:46:25 42° W 20:50:51 10° NNW
COSMOS 2428 2.9 20:41:16 10° SW 20:46:45 49° WNW 20:52:16 10° N
CZ-2C R/B 2.7 20:43:28 10° NNE 20:47:14 88° WNW 20:51:01 10° SSW
Cosmos 2333 Rocket 3.7 20:44:33 11° W 20:47:36 16° NW 20:51:02 10° NNW
Cosmos 1092 Rocket 4.0 20:41:48 10° NNW 20:47:57 66° W 20:54:08 10° S
USA 229 DEB 4.1 20:43:17 10° WSW 20:48:52 35° NW 20:54:53 10° NNE
USA 229 4.0 20:43:19 10° WSW 20:48:55 36° NW 20:54:57 10° NNE
SJ-11-01 4.2 20:45:27 10° N 20:50:04 64° WNW 20:54:42 10° SSW
Cosmos 2221 2.4 20:46:37 10° N 20:50:52 86° W 20:55:06 10° S
Cosmos 1634 Rocket 4.0 20:45:25 10° SSW 20:51:28 58° W 20:57:35 10° N
Cosmos 1980 4.0 20:46:37 10° SSW 20:52:13 72° ESE 20:57:53 10° NNE
Helios 1B rocket 2.5 20:50:31 10° N 20:54:22 51° WNW 20:58:12 10° SSW
Cosmos 1812 4.4 20:53:16 11° WNW 20:54:49 13° W 20:56:37 10° WSW
Cosmos 2285 Rocket 4.0 20:50:02 10° SSW 20:56:21 83° WNW 21:02:45 10° NNE
CZ-4B R/B 4.4 20:52:49 10° NNE 20:56:46 66° ESE 21:00:52 10° S
H-2A R/B 3.6 20:57:38 10° NW 20:59:44 13° WNW 21:01:50 10° W
Cosmos 1844 Rocket 4.4 20:58:05 10° WNW 21:00:40 13° W 21:03:15 10° SW
COSMO-SKYMED 1 4.0 20:59:14 10° SW 21:02:20 19° W 21:05:27 10° NW
NOSS 0 Rocket 4.0 20:57:31 10° SSW 21:03:43 68° WNW 21:09:57 10° NNE
Meteor 1-31 Rocket 2.8 21:00:39 10° NNE 21:04:26 84° ESE 21:08:13 10° S
SeaSat 1 3.9 21:01:30 10° SE 21:05:56 36° ENE 21:10:25 10° N
CORIOLIS 4.3 21:01:23 10° NNE 21:06:50 84° ESE 21:12:16 10° SSW
Cosmos 1110 Rocket 4.1 21:04:44 10° NNW 21:10:04 87° WSW 21:15:22 10° SSE
COSMOS 2455 4.1 21:07:46 10° WNW 21:12:11 22° WSW 21:16:37 10° SSW
